WX2DX-2 Weather Reports


Display with metric or nautical units.
time (UTC)temp
F
wind
direction
speed
MPH
gust
MPH
rain 1hr
in
rain 24hr
in
rain mn
in
humidity
%
barometer
mb
20260509074552 47 149 0.0 2.0 0.00 0.01 0.01 92 1009.6
20260509073050 47 149 0.0 1.0 0.00 0.01 0.01 92 1009.6
20260509071546 47 150 2.0 3.0 0.01 0.01 0.01 92 1009.6
20260509070043 47 80 0.0 1.0 0.01 0.01 0.01 91 1009.6
20260509064541 47 80 0.0 2.0 0.01 0.01 0.01 91 1010.0
20260509063038 47 80 0.0 1.0 0.01 0.01 0.01 90 1010.4
20260509061537 48 80 0.0 2.0 0.00 0.00 0.00 90 1010.7
20260509060038 48 80 0.0 1.0 0.00 0.00 0.00 90 1011.0
20260509054533 48 80 0.0 2.0 0.00 0.00 0.00 89 1011.0
20260509053046 48 80 0.0 2.0 0.00 0.00 0.00 88 1011.0
20260509051527 49 90 1.0 3.0 0.00 0.00 0.00 86 1011.2
20260509050025 49 130 0.0 3.0 0.00 0.00 0.00 85 1011.8
20260509044523 49 191 1.0 2.0 0.00 0.00 0.00 83 1011.6
20260509043021 49 130 0.0 2.0 0.00 0.00 0.00 84 1011.6
20260509041519 49 198 1.0 2.0 0.00 0.00 0.00 85 1011.5
20260509040026 49 284 0.0 3.0 0.00 0.00 0.00 84 1011.7
20260509034512 49 309 1.0 3.0 0.00 0.00 0.00 86 1011.8
20260509033009 49 303 1.0 3.0 0.00 0.00 0.00 86 1011.9
20260509031509 49 110 0.0 0.0 0.00 0.00 0.00 87 1011.8
20260508230015 56 255 8.0 18.0 0.00 0.02 0.00 65 1010.6
20260508224514 56 250 6.0 16.0 0.00 0.02 0.00 67 1010.4
20260508223034 56 258 7.0 21.0 0.00 0.02 0.00 66 1010.4
20260508221513 56 253 4.0 11.0 0.00 0.02 0.00 69 1010.4
20260508220014 56 293 6.0 11.0 0.00 0.02 0.00 69 1010.6
20260508214512 56 244 6.0 13.0 0.00 0.02 0.00 71 1010.7
20260508213020 54 277 5.0 11.0 0.00 0.02 0.00 74 1010.6
20260508211511 53 299 4.0 9.0 0.00 0.02 0.00 76 1010.4
20260508210013 53 259 5.0 14.0 0.00 0.02 0.00 76 1010.5
20260508204508 52 321 4.0 13.0 0.00 0.02 0.00 77 1010.7
20260508203008 53 257 5.0 15.0 0.00 0.02 0.00 75 1011.2
20260508201507 56 290 6.0 25.0 0.00 0.02 0.00 63 1011.0
20260508200012 59 225 10.0 21.0 0.00 0.02 0.00 52 1010.4
20260508194505 60 261 4.0 15.0 0.00 0.02 0.00 57 1010.3
20260508193005 59 207 5.0 11.0 0.00 0.02 0.00 58 1010.5
20260508191504 59 325 1.0 5.0 0.00 0.02 0.00 57 1010.5
20260508190006 59 351 1.0 3.0 0.00 0.02 0.00 58 1010.5
20260508184503 60 333 2.0 10.0 0.00 0.02 0.00 56 1010.4
20260508183003 58 247 3.0 12.0 0.00 0.02 0.00 57 1010.8
20260508181509 59 271 6.0 21.0 0.00 0.02 0.00 50 1010.4
20260508180101 60 271 10.0 18.0 0.00 0.02 0.00 50 1010.9
20260508174601 60 274 6.0 13.0 0.00 0.02 0.00 53 1011.2
20260508173055 59 258 6.0 13.0 0.00 0.02 0.00 58 1011.3
20260508171553 56 333 1.0 7.0 0.00 0.02 0.00 61 1011.6
20260508170052 56 259 7.0 15.0 0.00 0.02 0.00 56 1011.8
20260508164555 57 234 5.0 15.0 0.00 0.02 0.00 53 1011.4
20260508163051 57 307 8.0 15.0 0.00 0.02 0.00 50 1011.5
20260508161556 59 250 7.0 15.0 0.00 0.02 0.00 53 1011.7
20260508160048 57 337 5.0 13.0 0.00 0.02 0.00 53 1011.7
20260508154606 57 265 5.0 22.0 0.00 0.02 0.00 55 1011.9
20260508153046 58 310 4.0 18.0 0.00 0.02 0.00 58 1011.7
20260508151544 57 343 9.0 22.0 0.00 0.02 0.00 55 1011.6
20260508150055 57 219 6.0 21.0 0.00 0.02 0.00 54 1011.5
20260508144538 56 225 12.0 24.0 0.00 0.02 0.00 55 1011.6
20260508143049 56 215 11.0 19.0 0.00 0.02 0.00 53 1011.6
20260508141533 55 229 7.0 19.0 0.00 0.02 0.00 60 1011.9
20260508140030 54 232 5.0 13.0 0.00 0.02 0.00 62 1011.9
20260508134524 52 194 5.0 11.0 0.00 0.02 0.00 63 1011.9
20260508133020 51 216 5.0 11.0 0.00 0.02 0.00 63 1012.2
20260508131515 49 232 5.0 10.0 0.00 0.02 0.00 67 1012.3
20260508130011 47 234 2.0 6.0 0.00 0.02 0.00 74 1012.6
20260508124506 45 265 3.0 5.0 0.00 0.02 0.00 78 1012.5
20260508123054 42 248 2.0 4.0 0.00 0.02 0.00 81 1012.5
20260508121550 41 269 1.0 4.0 0.00 0.02 0.00 87 1012.6
20260508120050 40 199 0.0 1.0 0.00 0.02 0.00 90 1012.5
20260508114549 39 199 0.0 0.0 0.00 0.02 0.00 90 1012.5
20260508113049 38 61 0.0 1.0 0.00 0.02 0.00 91 1012.7
20260508111559 36 199 0.0 2.0 0.00 0.02 0.00 91 1012.7
20260508110047 34 209 0.0 1.0 0.00 0.02 0.00 92 1012.7
20260508104544 34 213 0.0 0.0 0.00 0.02 0.00 91 1012.5
20260508103048 34 213 0.0 1.0 0.00 0.02 0.00 92 1012.4
20260508101544 33 202 0.0 2.0 0.00 0.02 0.00 94 1012.3
20260508100037 32 259 0.0 0.0 0.00 0.02 0.00 92 1012.2
20260508094535 33 259 0.0 0.0 0.00 0.02 0.00 92 1012.0
20260508093037 33 259 0.0 0.0 0.00 0.02 0.00 92 1012.0
20260508091533 33 259 0.0 0.0 0.00 0.02 0.00 91 1011.9
20260508090035 33 259 0.0 0.0 0.00 0.02 0.00 91 1011.9
20260508084529 33 259 0.0 0.0 0.00 0.02 0.00 90 1011.8
20260508083027 34 259 0.0 0.0 0.00 0.02 0.00 89 1011.8
20260508081527 34 259 0.0 1.0 0.00 0.02 0.00 89 1011.8
20260508080037 35 259 0.0 0.0 0.00 0.02 0.00 89 1011.9